Cloud_Cover
5 5 5 3 0 0 0 0 0 0 0 0 0 0 0 0 4 5 3 5 4 2 87 100 100 80 5 98 100 100 100 100 100
100 61 5 5 5 5 5 9 5 5 5 1 0 0 0 0 2 5 5 6 35 5 6 45 93 100 100 100 89 88 100 100 100
100 100 75 5 5 5 22 5 5 5 5 5 0 0 0 0 5 5 5 5 42 48 70 86 100 100 99 100 94 16 82 68 100
100 61 28 5 5 5 5 56 13 5 5 2 0 0 0 0 0 1 5 5 5 77 67 100 100 71 100 84 90 80 100 77 98
5 75 100 27 44 18 9 88 88 6 5 0 0 0 0 0 0 0 5 22 5 16 5 66 44 84 98 9 14 20 72 90 33
0 0 13 34 5 8 56 17 82 44 94 17 0 0 0 0 0 0 5 5 23 48 5 74 27 6 76 8 85 100 100 100 100
0 14 1 0 0 2 35 67 5 17 85 100 64 0 1 4 3 4 5 5 10 5 40 24 18 5 22 100 100 100 100 100 100
30 31 30 23 55 45 13 10 16 47 29 27 50 85 7 5 5 5 5 5 5 7 5 29 16 57 100 100 100 100 100 100 100
100 80 26 30 37 87 84 86 61 49 25 16 13 6 5 10 5 5 5 2 5 4 15 7 41 48 54 85 100 95 100 100 100
98 77 55 86 81 52 100 100 100 90 54 34 18 7 4 5 5 5 5 5 4 5 5 6 6 8 22 61 32 7 44 77 98
100 99 91 68 100 100 98 100 100 100 89 52 53 5 5 4 14 7 5 5 5 5 5 6 39 34 8 6 33 5 88 15 37
0 37 100 100 98 100 100 100 100 100 100 95 40 24 6 5 12 45 42 5 5 5 5 5 5 18 90 45 26 23 38 19 68
0 0 0 1 38 34 99 100 100 100 100 100 99 37 1 0 2 20 62 53 50 10 5 5 5 5 23 89 42 97 57 46 100
0 0 0 0 0 0 8 86 100 100 100 100 100 91 16 4 33 10 14 56 100 78 17 5 5 11 5 5 7 78 100 100 100
0 0 0 0 0 0 5 20 46 98 100 100 100 100 32 52 75 35 64 5 36 53 83 33 30 36 5 5 5 5 49 9 32
0 0 0 0 0 0 0 1 18 100 81 99 100 98 99 35 42 82 50 6 25 5 26 22 52 99 37 5 5 5 5 5 5
0 0 0 0 0 0 0 0 0 0 7 98 68 100 100 94 64 62 99 96 96 100 22 5 37 94 100 10 5 8 5 39 7
0 0 0 0 0 0 0 0 0 0 0 0 84 73 20 34 83 100 61 100 100 100 100 76 25 93 100 83 89 83 11 18 69
0 0 0 0 0 0 0 0 0 0 0 3 64 48 3 2 6 36 100 97 100 100 100 90 97 5 10 97 97 46 8 100 100
0 0 0 0 0 0 0 0 0 0 0 0 0 48 100 72 0 0 62 96 94 100 100 100 100 83 10 3 18 100 82 31 78